Terug naar catalogus

STARLINK-32641

ActiefCommunicatieVLEO
NORAD 62236·PAYLOAD·🇺🇸 United States

Gelanceerd Dec 5, 2024 vanaf Vandenberg Space Force Base

Loading…

Volgende Passages (komende 24 uur)

TLE

VersSource: CelesTrak SupGP

Epoch: Sep 15, 2026, 02:10 UTC

1 62236C 24231U   26258.09076389 -.00021231  00000+0 -62755-3 0  2582
2 62236  53.1608  46.6479 0001096  86.6659 245.7350 15.34387224    12

Volg STARLINK-32641 in realtime met AllMySat

Download on the App Store